TimeHST,TemperatureF,Dew PointF,Humidity,Sea Level PressureIn,VisibilityMPH,Wind Direction,Wind SpeedMPH,Gust SpeedMPH,PrecipitationIn,Events,Conditions,WindDirDegrees,DateUTC
12:53 AM,78.1,69.1,74,30.05,10.0,WSW,6.9,-,N/A,,Mostly Cloudy,250,2013-05-28 10:53:00
1:21 AM,78.8,69.8,74,30.04,10.0,West,4.6,-,N/A,,Overcast,260,2013-05-28 11:21:00
1:53 AM,75.9,68.0,76,30.04,10.0,ENE,13.8,-,N/A,,Overcast,60,2013-05-28 11:53:00
2:18 AM,73.4,66.2,78,30.03,10.0,NE,6.9,-,0.03,Rain,Light Rain,50,2013-05-28 12:18:00
2:53 AM,73.9,66.9,79,30.02,10.0,ENE,5.8,-,0.11,,Overcast,70,2013-05-28 12:53:00
3:53 AM,75.0,69.1,82,30.02,10.0,East,3.5,-,N/A,,Partly Cloudy,80,2013-05-28 13:53:00
4:53 AM,73.9,68.0,82,30.02,10.0,East,4.6,-,N/A,,Clear,90,2013-05-28 14:53:00
5:53 AM,73.0,69.1,87,30.04,10.0,ENE,3.5,-,N/A,,Partly Cloudy,70,2013-05-28 15:53:00
6:53 AM,77.0,71.1,82,30.04,10.0,East,3.5,-,N/A,,Scattered Clouds,80,2013-05-28 16:53:00
7:36 AM,77.0,69.8,78,30.05,10.0,NW,13.8,20.7,N/A,,Mostly Cloudy,310,2013-05-28 17:36:00
7:51 AM,75.2,69.8,83,30.05,10.0,NNW,9.2,-,N/A,,Overcast,340,2013-05-28 17:51:00
7:53 AM,75.9,69.1,79,30.06,10.0,NNW,8.1,-,N/A,,Overcast,340,2013-05-28 17:53:00
8:53 AM,80.1,70.0,71,30.06,10.0,North,3.5,-,N/A,,Clear,10,2013-05-28 18:53:00
9:53 AM,80.1,69.1,69,30.06,10.0,Variable,3.5,-,N/A,,Partly Cloudy,0,2013-05-28 19:53:00
10:53 AM,82.0,69.1,65,30.06,10.0,SW,10.4,-,N/A,,Clear,230,2013-05-28 20:53:00
11:53 AM,84.0,68.0,58,30.06,10.0,SW,11.5,-,N/A,,Clear,230,2013-05-28 21:53:00
12:53 PM,84.0,69.1,61,30.05,10.0,South,11.5,-,N/A,,Clear,190,2013-05-28 22:53:00
1:53 PM,84.0,69.1,61,30.03,10.0,South,11.5,-,N/A,,Partly Cloudy,190,2013-05-28 23:53:00
2:53 PM,84.0,68.0,58,30.02,10.0,WSW,11.5,-,N/A,,Clear,240,2013-05-29 00:53:00
3:53 PM,82.9,68.0,60,30.01,10.0,WSW,9.2,-,N/A,,Mostly Cloudy,240,2013-05-29 01:53:00
4:53 PM,82.9,68.0,60,30.01,10.0,SSW,10.4,-,N/A,,Clear,210,2013-05-29 02:53:00
5:53 PM,82.0,68.0,62,30.02,10.0,SSW,9.2,-,N/A,,Clear,200,2013-05-29 03:53:00
6:53 PM,81.0,66.9,62,30.04,10.0,South,8.1,-,N/A,,Clear,190,2013-05-29 04:53:00
7:53 PM,80.1,68.0,67,30.06,10.0,South,8.1,-,N/A,,Clear,180,2013-05-29 05:53:00
8:53 PM,80.1,68.0,67,30.08,10.0,South,8.1,-,N/A,,Partly Cloudy,180,2013-05-29 06:53:00
9:53 PM,79.0,69.1,72,30.09,10.0,SSW,6.9,-,N/A,,Clear,210,2013-05-29 07:53:00
10:53 PM,79.0,69.1,72,30.09,10.0,SW,8.1,-,N/A,,Mostly Cloudy,220,2013-05-29 08:53:00
11:50 PM,78.8,69.8,74,30.08,10.0,WSW,8.1,-,N/A,,Mostly Cloudy,240,2013-05-29 09:50:00
11:53 PM,79.0,69.1,72,30.08,10.0,WSW,6.9,-,N/A,,Overcast,240,2013-05-29 09:53:00